Terminal Aerodrome Forecast
Issued by NWS Wilmington, OH

Current Version | Previous Version | Text Only | Print | Product List | Glossary Off
Versions: 1 2 3 4 5 6 7 8 9 10 11 12 13 14 15 16 17 18 19 20 21 22 23

000
FTUS41 KILN 190542
TAFDAY
TAF
KDAY 190542Z 1906/2006 21009KT P6SM SCT100
     FM190800 24007KT 5SM BR BKN025
     FM191000 26006KT 2SM BR BKN008
     FM191500 27008KT P6SM SCT025
     FM191900 26008KT P6SM SCT250
     FM200000 23005KT P6SM SCT250
     FM200500 21003KT 5SM BR SCT250=

USA.gov is the U.S. government's official web portal to all federal, state and local government web resources and services.